Location: Unspecified
(0.0000°N, 0.0000°E)
Time: 20:44:46
(UTC+00:00)

FENGYUN 1C DEB - Pass Details

Date: 14 February 2026
Orbit: 775 x 802 km, 98.9° (Epoch: 9 April)

Event Time Altitude Azimuth Distance (km) Brightness Sun altitude
Rises 03:13:39 0° 131° (SE) 3,198 ? -43.7°
Reaches altitude 10° 03:17:11 10° 105° (ESE) 2,275 ? -42.8°
Enters shadow 03:18:36 13° 88° (E) 2,091 ? -42.5°
